Weather History for Lone Rock, WI

Change the Weather History Date:

Saturday, March 30, 2013

  Actual Average Record
Temperature  
Mean Temperature 43 °F -  
Max Temperature 51 °F 49 °F 71 °F (1999)
Min Temperature 35 °F 31 °F 19 °F (2003)
Degree Days  
Heating Degree Days 22    
Moisture  
Dew Point 37 °F    
Average Humidity 79    
Maximum Humidity 100    
Minimum Humidity 56    
Precipitation  
Precipitation 0.02 in - - ()
Sea Level Pressure  
Sea Level Pressure 29.94 in    
Wind  
Wind Speed 7 mph (SW)    
Max Wind Speed 16 mph    
Max Gust Speed 24 mph    
Visibility 6 miles    
Events Rain    
Averages and records for this station are not official NWS values.
T = Trace of Precipitation, MM = Missing Value Source: NWS Daily Summary

Daily Weather History Graph

Daily Weather History Graph

Search for Another Location

Airport:

Trip Planner

Search our weather history database for the weather conditions in past years. The results will help you decide how hot, cold, wet, or windy it might be!

Date:

Astronomy

Mar. 30, 2013 Rise Set
Actual Time 6:45 AM CDT 7:25 PM CDT
Civil Twilight 6:17 AM CDT 7:53 PM CDT
Nautical Twilight 5:43 AM CDT 8:27 PM CDT
Astronomical Twilight 5:07 AM CDT 9:03 PM CDT
Moon 11:38 PM CDT (3/30) 8:34 AM CDT (3/30)
Length of Visible Light 13h 36m
Length of Day
12h 39m
Waning Gibbous, 86% of the Moon is Illuminated
Mar 30
Waning Gibbous
Apr 2
Last Quarter
Apr 10
New
Apr 18
First Quarter
Apr 25
Full

Hourly Weather History & Observations

Time (CDT) Temp. Windchill Dew Point Humidity Pressure Visibility Wind Dir Wind Speed Gust Speed Precip Events Conditions
12:56 AM 37.0 °F 33.3 °F 28.9 °F 73% 30.20 in 10.0 mi ENE 4.6 mph - N/A   Overcast
1:56 AM 37.0 °F 31.0 °F 28.0 °F 70% 30.18 in 10.0 mi East 8.1 mph - N/A   Overcast
2:56 AM 36.0 °F 29.6 °F 27.0 °F 70% 30.16 in 10.0 mi East 8.1 mph - N/A   Mostly Cloudy
3:56 AM 35.1 °F 30.1 °F 28.0 °F 76% 30.15 in 10.0 mi East 5.8 mph - N/A   Clear
4:56 AM 36.0 °F 30.3 °F 28.0 °F 73% 30.14 in 10.0 mi East 6.9 mph - N/A   Overcast
5:56 AM 37.0 °F 31.0 °F 28.0 °F 70% 30.10 in 10.0 mi East 8.1 mph - N/A   Overcast
6:56 AM 36.0 °F 29.6 °F 27.0 °F 70% 30.09 in 9.0 mi East 8.1 mph - N/A   Scattered Clouds
7:56 AM 37.9 °F 33.5 °F 28.9 °F 70% 30.08 in 8.0 mi ESE 5.8 mph - N/A   Overcast
8:56 AM 42.1 °F 39.2 °F 30.0 °F 62% 30.05 in 9.0 mi ESE 4.6 mph - N/A   Overcast
9:56 AM 44.1 °F 39.0 °F 32.0 °F 63% 30.04 in 9.0 mi SSW 9.2 mph - N/A   Overcast
10:56 AM 46.0 °F 41.4 °F 33.1 °F 61% 30.01 in 9.0 mi South 9.2 mph - N/A   Overcast
11:56 AM 48.0 °F - 35.1 °F 61% 29.99 in 8.0 mi Variable 3.5 mph - N/A   Overcast
12:56 PM 51.1 °F - 36.0 °F 56% 29.96 in 8.0 mi SSW 15.0 mph 24.2 mph N/A   Overcast
1:56 PM 51.1 °F - 37.9 °F 61% 29.94 in 8.0 mi SSW 16.1 mph 20.7 mph N/A   Overcast
2:56 PM 51.1 °F - 39.0 °F 63% 29.91 in 8.0 mi SW 8.1 mph - N/A   Overcast
3:56 PM 51.1 °F - 39.9 °F 66% 29.89 in 7.0 mi SW 12.7 mph 19.6 mph 0.00 in Rain Light Rain
4:56 PM 50.0 °F - 41.0 °F 71% 29.86 in 6.0 mi SW 3.5 mph - 0.00 in   Haze
5:56 PM 50.0 °F - 39.0 °F 66% 29.86 in 8.0 mi WSW 6.9 mph - N/A   Overcast
6:56 PM 46.9 °F - 41.0 °F 80% 29.86 in 3.0 mi SW 15.0 mph 20.7 mph 0.02 in Rain Light Rain
7:26 PM 46.4 °F 43.5 °F 42.8 °F 87% 29.85 in 6.0 mi WSW 5.8 mph - 0.00 in   Overcast
7:48 PM 44.6 °F 41.4 °F 42.8 °F 93% 29.85 in 5.0 mi West 5.8 mph - 0.00 in   Overcast
7:56 PM 45.0 °F 43.5 °F 42.1 °F 90% 29.85 in 4.0 mi West 3.5 mph - 0.00 in   Overcast
8:12 PM 44.6 °F - 42.8 °F 93% 29.85 in 4.0 mi Calm Calm - N/A   Overcast
8:46 PM 44.6 °F 41.4 °F 42.8 °F 93% 29.85 in 5.0 mi WSW 5.8 mph - N/A   Overcast
8:56 PM 45.0 °F 42.6 °F 42.1 °F 90% 29.84 in 5.0 mi Variable 4.6 mph - N/A   Overcast
9:46 PM 44.6 °F 42.2 °F 42.8 °F 93% 29.85 in 4.0 mi West 4.6 mph - N/A   Overcast
9:56 PM 44.1 °F 41.5 °F 42.1 °F 93% 29.84 in 3.0 mi West 4.6 mph - N/A   Overcast
10:03 PM 44.6 °F 41.4 °F 42.8 °F 93% 29.85 in 2.0 mi WNW 5.8 mph - N/A   Overcast
10:10 PM 44.6 °F 40.7 °F 42.8 °F 93% 29.85 in 1.5 mi West 6.9 mph - N/A   Overcast
10:32 PM 44.6 °F 40.7 °F 42.8 °F 93% 29.85 in 1.5 mi West 6.9 mph - N/A   Overcast
10:45 PM 42.8 °F 38.0 °F 42.8 °F 100% 29.85 in 2.0 mi West 8.1 mph - N/A   Overcast
10:53 PM 44.6 °F 40.2 °F 42.8 °F 93% 29.84 in 3.0 mi WNW 8.1 mph - N/A   Overcast
10:56 PM 44.1 °F 39.0 °F 42.1 °F 93% 29.84 in 3.0 mi WNW 9.2 mph - N/A   Overcast
11:06 PM 44.6 °F 39.2 °F 42.8 °F 93% 29.84 in 5.0 mi WNW 10.4 mph - N/A   Overcast
11:47 PM 42.8 °F 37.0 °F 39.2 °F 87% 29.85 in 6.0 mi NW 10.4 mph - N/A   Overcast
11:56 PM 43.0 °F 38.8 °F 39.0 °F 86% 29.84 in 7.0 mi WNW 6.9 mph 16.1 mph N/A   Overcast